Alva, OK

3:00 AM CDT on July 24, 2017 (GMT -0500)
Alva Regional

Weather History for KAVK - January, 2014

Change the Weather History Date:

Tuesday, January 7, 2014

  Actual Average Record
Temperature  
Mean Temperature 27 °F -  
Max Temperature 48 °F 40 °F 78 °F (2006)
Min Temperature 6 °F 20 °F 1 °F (1968)
Degree Days  
Heating Degree Days 38    
Moisture  
Dew Point 17 °F    
Average Humidity 62    
Maximum Humidity 85    
Minimum Humidity 37    
Precipitation  
Precipitation 0.00 in - - ()
Sea Level Pressure  
Sea Level Pressure 30.16 in    
Wind  
Wind Speed 10 mph (SSW)    
Max Wind Speed 18 mph    
Max Gust Speed 20 mph    
Visibility 10 miles    
Events      
Averages and records for this station are not official NWS values.
T = Trace of Precipitation, MM = Missing Value Source: NWS Daily Summary

Daily Weather History Graph

Daily Weather History Graph

Search for Another Location

Airport or City:

Trip Planner

Search our weather history database for the weather conditions in past years. The results will help you decide how hot, cold, wet, or windy it might be!

Date:

Astronomy

Jan. 07, 2014 Rise Set
Actual Time 7:47 AM CST 5:34 PM CST
Civil Twilight 7:19 AM CST 6:03 PM CST
Nautical Twilight 6:47 AM CST 6:35 PM CST
Astronomical Twilight 6:15 AM CST 7:06 PM CST
Moon 11:48 AM CST (1/7) No Moon Set
Length of Visible Light 10h 43m
Length of Day
9h 46m
Waxing Crescent, 46% of the Moon is Illuminated
Jan 7
Waxing Crescent
Jan 7
First Quarter
Jan 15
Full
Jan 23
Last Quarter
Jan 30
New

Hourly Weather History & Observations

Time (CST) Temp. Windchill Dew Point Humidity Pressure Visibility Wind Dir Wind Speed Gust Speed Precip Events Conditions
12:10 AM 6.8 °F -2.0 °F 1.4 °F 79% 30.35 in 10.0 mi SSW 4.6 mph - N/A   Clear
12:30 AM 6.8 °F - 1.4 °F 79% 30.35 in 10.0 mi Calm Calm - N/A   Clear
12:50 AM 6.8 °F -3.5 °F 1.4 °F 79% 30.33 in 10.0 mi WSW 5.8 mph - N/A   Clear
1:10 AM 8.6 °F -1.3 °F 3.2 °F 79% 30.32 in 10.0 mi WSW 5.8 mph - N/A   Clear
1:30 AM 8.6 °F -1.3 °F 3.2 °F 79% 30.31 in 10.0 mi WSW 5.8 mph - N/A   Clear
1:50 AM 8.6 °F -4.7 °F 3.2 °F 79% 30.30 in 10.0 mi SW 9.2 mph - N/A   Clear
2:10 AM 10.4 °F -4.8 °F 6.8 °F 85% 30.30 in 10.0 mi SW 12.7 mph - N/A   Clear
2:30 AM 14.0 °F 1.2 °F 8.6 °F 79% 30.29 in 10.0 mi SW 10.4 mph - N/A   Clear
2:50 AM 14.0 °F 1.2 °F 6.8 °F 73% 30.29 in 10.0 mi SSW 10.4 mph - N/A   Clear
3:10 AM 14.0 °F 0.5 °F 8.6 °F 79% 30.28 in 10.0 mi SW 11.5 mph - N/A   Clear
3:30 AM 17.6 °F 4.3 °F 10.4 °F 73% 30.27 in 10.0 mi SW 12.7 mph - N/A   Clear
3:50 AM 17.6 °F 5.0 °F 10.4 °F 73% 30.26 in 10.0 mi SW 11.5 mph - N/A   Clear
4:10 AM 17.6 °F 6.4 °F 10.4 °F 73% 30.26 in 10.0 mi SW 9.2 mph - N/A   Clear
4:30 AM 17.6 °F 6.4 °F 10.4 °F 73% 30.25 in 10.0 mi SW 9.2 mph - N/A   Clear
4:50 AM 19.4 °F 11.5 °F 10.4 °F 68% 30.24 in 10.0 mi SW 5.8 mph - N/A   Clear
5:10 AM 17.6 °F 8.2 °F 8.6 °F 68% 30.24 in 10.0 mi SSW 6.9 mph - N/A   Clear
5:30 AM 17.6 °F 6.4 °F 8.6 °F 68% 30.24 in 10.0 mi SSW 9.2 mph - N/A   Clear
5:50 AM 15.8 °F 2.7 °F 8.6 °F 73% 30.23 in 10.0 mi SSW 11.5 mph - N/A   Clear
6:10 AM 15.8 °F 1.4 °F 8.6 °F 73% 30.22 in 10.0 mi SSW 13.8 mph - N/A   Clear
6:30 AM 17.6 °F 3.7 °F 10.4 °F 73% 30.22 in 10.0 mi SSW 13.8 mph - N/A   Clear
6:50 AM 17.6 °F 5.0 °F 10.4 °F 73% 30.23 in 10.0 mi SW 11.5 mph - N/A   Clear
7:10 AM 15.8 °F 3.4 °F 8.6 °F 73% 30.22 in 10.0 mi SSW 10.4 mph - N/A   Clear
7:30 AM 17.6 °F 3.2 °F 10.4 °F 73% 30.21 in 10.0 mi South 15.0 mph - N/A   Clear
7:50 AM 17.6 °F 3.7 °F 10.4 °F 73% 30.21 in 10.0 mi SSW 13.8 mph - N/A   Clear
8:10 AM 17.6 °F 5.7 °F 10.4 °F 73% 30.22 in 10.0 mi SSW 10.4 mph - N/A   Clear
8:30 AM 19.4 °F 6.6 °F 10.4 °F 68% 30.21 in 10.0 mi South 12.7 mph - N/A   Clear
8:50 AM 19.4 °F 6.0 °F 12.2 °F 74% 30.20 in 10.0 mi South 13.8 mph - N/A   Clear
9:10 AM 23.0 °F 10.6 °F 14.0 °F 68% 30.20 in 10.0 mi SSW 13.8 mph - N/A   Clear
9:30 AM 24.8 °F 14.6 °F 15.8 °F 69% 30.21 in 10.0 mi SSW 10.4 mph - N/A   Clear
9:50 AM 26.6 °F 17.5 °F 17.6 °F 69% 30.22 in 10.0 mi South 9.2 mph - N/A   Clear
10:10 AM 28.4 °F 17.0 °F 17.6 °F 64% 30.21 in 10.0 mi SW 15.0 mph - N/A   Clear
10:30 AM 32.0 °F 21.6 °F 17.6 °F 55% 30.21 in 10.0 mi SW 15.0 mph - N/A   Clear
10:50 AM 32.0 °F 23.6 °F 17.6 °F 55% 30.21 in 10.0 mi WSW 10.4 mph - N/A   Clear
11:10 AM 33.8 °F 25.8 °F 19.4 °F 56% 30.20 in 10.0 mi SW 10.4 mph - N/A   Clear
11:30 AM 35.6 °F 27.1 °F 19.4 °F 52% 30.19 in 10.0 mi WSW 12.7 mph - N/A   Clear
11:50 AM 37.4 °F 30.3 °F 19.4 °F 48% 30.17 in 10.0 mi SW 10.4 mph - N/A   Clear
12:10 PM 39.2 °F 33.0 °F 21.2 °F 49% 30.15 in 10.0 mi SW 9.2 mph - N/A   Clear
12:30 PM 41.0 °F 35.2 °F 23.0 °F 49% 30.13 in 10.0 mi SSW 9.2 mph - N/A   Clear
12:50 PM 44.6 °F 39.7 °F 21.2 °F 39% 30.12 in 10.0 mi SSW 9.2 mph - N/A   Clear
1:10 PM 46.4 °F 42.4 °F 23.0 °F 40% 30.11 in 10.0 mi South 8.1 mph - N/A   Clear
1:30 PM 46.4 °F 41.9 °F 23.0 °F 40% 30.10 in 10.0 mi SSW 9.2 mph - N/A   Clear
1:50 PM 48.2 °F - 23.0 °F 37% 30.09 in 10.0 mi SSW 11.5 mph - N/A   Clear
2:10 PM 48.2 °F - 23.0 °F 37% 30.08 in 10.0 mi SSW 15.0 mph - N/A   Clear
2:30 PM 48.2 °F - 23.0 °F 37% 30.07 in 10.0 mi SSW 13.8 mph - N/A   Clear
2:50 PM 48.2 °F - 24.8 °F 40% 30.07 in 10.0 mi SSW 11.5 mph - N/A   Clear
3:10 PM 48.2 °F - 24.8 °F 40% 30.07 in 10.0 mi SSW 18.4 mph - N/A   Clear
3:30 PM 48.2 °F - 23.0 °F 37% 30.06 in 10.0 mi SSW 15.0 mph 19.6 mph N/A   Clear
3:50 PM 46.4 °F 40.4 °F 24.8 °F 43% 30.06 in 10.0 mi South 13.8 mph - N/A   Clear
4:10 PM 46.4 °F 41.1 °F 24.8 °F 43% 30.06 in 10.0 mi South 11.5 mph - N/A   Clear
4:30 PM 46.4 °F 41.1 °F 24.8 °F 43% 30.06 in 10.0 mi South 11.5 mph - N/A   Clear
4:50 PM 42.8 °F 36.6 °F 26.6 °F 53% 30.05 in 10.0 mi South 11.5 mph - N/A   Clear
5:10 PM 42.8 °F 35.4 °F 24.8 °F 49% 30.05 in 10.0 mi South 15.0 mph - N/A   Clear
5:30 PM 41.0 °F 33.1 °F 23.0 °F 49% 30.05 in 10.0 mi South 15.0 mph - N/A   Clear
5:50 PM 41.0 °F 33.1 °F 23.0 °F 49% 30.05 in 10.0 mi South 15.0 mph - N/A   Clear
6:10 PM 39.2 °F 31.2 °F 23.0 °F 52% 30.06 in 10.0 mi South 13.8 mph - N/A   Partly Cloudy
6:30 PM 37.4 °F 28.9 °F 23.0 °F 56% 30.06 in 10.0 mi South 13.8 mph - N/A   Clear
6:50 PM 37.4 °F 29.8 °F 23.0 °F 56% 30.06 in 10.0 mi SSW 11.5 mph - N/A   Clear
7:10 PM 35.6 °F 27.1 °F 23.0 °F 60% 30.07 in 10.0 mi South 12.7 mph - N/A   Clear
7:30 PM 33.8 °F 25.3 °F 23.0 °F 65% 30.07 in 10.0 mi South 11.5 mph - N/A   Clear
7:50 PM 35.6 °F 26.6 °F 23.0 °F 60% 30.07 in 10.0 mi South 13.8 mph - N/A   Clear
8:10 PM 33.8 °F 24.8 °F 23.0 °F 65% 30.08 in 10.0 mi South 12.7 mph - N/A   Clear
8:30 PM 32.0 °F 23.0 °F 23.0 °F 69% 30.07 in 10.0 mi South 11.5 mph - N/A   Clear
8:50 PM 32.0 °F 23.0 °F 23.0 °F 69% 30.07 in 10.0 mi SSE 11.5 mph - N/A   Clear
9:10 PM 32.0 °F 23.6 °F 21.2 °F 64% 30.05 in 10.0 mi SSE 10.4 mph - N/A   Clear
9:30 PM 32.0 °F 24.2 °F 23.0 °F 69% 30.06 in 10.0 mi South 9.2 mph - N/A   Clear
9:50 PM 32.0 °F 24.2 °F 23.0 °F 69% 30.07 in 10.0 mi South 9.2 mph - N/A   Clear
10:10 PM 32.0 °F 23.6 °F 23.0 °F 69% 30.06 in 10.0 mi South 10.4 mph - N/A   Clear
10:30 PM 32.0 °F 22.1 °F 23.0 °F 69% 30.06 in 10.0 mi SSE 13.8 mph - N/A   Clear
10:50 PM 32.0 °F 22.1 °F 23.0 °F 69% 30.04 in 10.0 mi SSE 13.8 mph - N/A   Clear
11:10 PM 32.0 °F 22.5 °F 23.0 °F 69% 30.04 in 10.0 mi South 12.7 mph - N/A   Clear
11:30 PM 32.0 °F 23.0 °F 23.0 °F 69% 30.04 in 10.0 mi South 11.5 mph - N/A   Clear
11:50 PM 32.0 °F 23.0 °F 23.0 °F 69% 30.03 in 10.0 mi South 11.5 mph - N/A   Clear